This is the latest recevied weather packets stored in our database for station/object KN6CW-3. If no packets are shown the sender has not sent any weather packets the latest 10 day(s).
| Time | Temp. | Humidity | Pressure | Rain* | Wind** | Luminosity | Snow |
|---|---|---|---|---|---|---|---|
| 1777841506 | 12.22° C | 38% | 1011.7 hPa | 0 mm | - | 540 W/m² | - |
| 1777841206 | 12.22° C | 37% | 1011.8 hPa | 0 mm | - | 220 W/m² | - |
| 1777840906 | 11.67° C | 37% | 1011.9 hPa | 0 mm | - | 258 W/m² | - |
| 1777840605 | 12.22° C | 37% | 1012 hPa | 0 mm | - | 271 W/m² | - |
| 1777840305 | 11.67° C | 37% | 1012 hPa | 0 mm | - | 193 W/m² | - |
| 1777840005 | 12.22° C | 37% | 1012 hPa | 0 mm | - | 169 W/m² | - |
| 1777839704 | 12.78° C | 37% | 1012 hPa | 0 mm | - | 657 W/m² | - |
| 1777839404 | 12.22° C | 37% | 1011.9 hPa | 0 mm | - | 686 W/m² | - |
| 1777838803 | 12.22° C | 38% | 1011.9 hPa | 0 mm | - | 805 W/m² | - |
| 1777838503 | 11.67° C | 37% | 1012.2 hPa | 0 mm | - | 898 W/m² | - |
| 1777838203 | 11.67° C | 36% | 1012.2 hPa | 0 mm | - | 745 W/m² | - |
| 1777837903 | 11.67° C | 37% | 1012.3 hPa | 0 mm | - | 172 W/m² | - |
| 1777837602 | 12.22° C | 37% | 1012.3 hPa | 0 mm | - | 225 W/m² | - |
| 1777837302 | 12.22° C | 38% | 1012.4 hPa | 0 mm | - | 846 W/m² | - |
| 1777837002 | 12.22° C | 37% | 1012.3 hPa | 0 mm | - | 918 W/m² | - |
| 1777836701 | 12.22° C | 36% | 1012.5 hPa | 0 mm | - | 510 W/m² | - |
| 1777836401 | 12.22° C | 38% | 1012.5 hPa | 0 mm | - | 828 W/m² | - |
| 1777836101 | 12.22° C | 38% | 1012.6 hPa | 0 mm | - | 925 W/m² | - |
| 1777835800 | 11.67° C | 39% | 1012.7 hPa | 0 mm | - | 898 W/m² | - |
| 1777835500 | 11.67° C | 39% | 1012.8 hPa | 0 mm | - | 874 W/m² | - |
| 1777835200 | 11.67° C | 39% | 1012.5 hPa | 0 mm | - | 895 W/m² | - |
| 1777834900 | 11.67° C | 39% | 1012.6 hPa | 0 mm | - | 951 W/m² | - |
| 1777834599 | 11.67° C | 39% | 1012.7 hPa | 0 mm | - | 900 W/m² | - |
| 1777834299 | 11.11° C | 39% | 1012.6 hPa | 0 mm | - | 935 W/m² | - |
| 1777833999 | 11.11° C | 38% | 1012.8 hPa | 0 mm | - | 921 W/m² | - |
* Rain latest hour (hover to see other rain measurements)
** Current wind speed in m/s (hover to see current wind gust speed)